When you browse on this site, cookies collect data to enhance your experience and personalize the content and advertising you see.
Visit our Privacy Policy to learn more. By continuing to use the site, you agree to this use of cookies and data.
  • En España
  • Lista de países
  • Para 7 días
  • Temperatura del agua
  • Mapa Satelital
  • El tiempo en el mapa
  • Informadores
  • user-avatar
    Iniciar sesión

    Tiempo cada hora Delhi

    Hoy, 18 Abril, Jueves

    Tiempo Temperatura Precipitaciones Viento Presión Humedad
    00:00 +24°C° 0 mm 2 mps 739 mmHg 66%
    01:00 +24°C° 0 mm 2 mps 739 mmHg 65%
    02:00 +24°C° 0 mm 3 mps 739 mmHg 64%
    03:00 +24°C° 0 mm 2 mps 739 mmHg 64%
    04:00 +24°C° 0 mm 2 mps 739 mmHg 64%
    05:00 +23°C° 0 mm 1 mps 738 mmHg 63%
    06:00 +24°C° 0 mm 1 mps 739 mmHg 60%
    07:00 +25°C° 0 mm 1 mps 739 mmHg 56%
    08:00 +26°C° 0 mm 1 mps 740 mmHg 52%
    09:00 +28°C° 0 mm 1 mps 740 mmHg 46%
    10:00 +29°C° 0 mm 1 mps 740 mmHg 41%
    11:00 +29°C° 0 mm 0 mps 740 mmHg 37%
    12:00 +32°C° 0 mm 1 mps 739 mmHg 34%
    13:00 +32°C° 0 mm 1 mps 739 mmHg 32%
    14:00 +33°C° 0 mm 1 mps 738 mmHg 29%
    15:00 +33°C° 0 mm 1 mps 738 mmHg 29%
    16:00 +32°C° 0 mm 1 mps 738 mmHg 30%
    17:00 +32°C° 0 mm 1 mps 737 mmHg 30%
    18:00 +31°C° 0 mm 2 mps 737 mmHg 30%
    19:00 +31°C° 0 mm 2 mps 738 mmHg 30%
    20:00 +31°C° 0 mm 2 mps 738 mmHg 31%
    21:00 +30°C° 0 mm 2 mps 738 mmHg 32%
    22:00 +30°C° 0 mm 2 mps 738 mmHg 33%
    23:00 +29°C° 0 mm 2 mps 738 mmHg 34%

    Mañana, 19 Abril, Viernes

    Tiempo Temperatura Precipitaciones Viento Presión Humedad
    00:00 +29°C° 0 mm 2 mps 738 mmHg 35%
    01:00 +28°C° 0 mm 2 mps 737 mmHg 37%
    02:00 +28°C° 0 mm 2 mps 737 mmHg 38%
    03:00 +27°C° 0 mm 2 mps 737 mmHg 39%
    04:00 +27°C° 0 mm 2 mps 737 mmHg 40%
    05:00 +27°C° 0 mm 2 mps 737 mmHg 41%
    06:00 +27°C° 0 mm 2 mps 737 mmHg 38%
    07:00 +28°C° 0 mm 2 mps 738 mmHg 36%
    08:00 +29°C° 0 mm 2 mps 738 mmHg 34%
    09:00 +30°C° 0 mm 2 mps 738 mmHg 31%
    10:00 +32°C° 0 mm 2 mps 738 mmHg 28%
    11:00 +34°C° 0 mm 2 mps 738 mmHg 25%
    12:00 +35°C° 0 mm 2 mps 738 mmHg 23%
    13:00 +35°C° 0 mm 2 mps 737 mmHg 22%
    14:00 +36°C° 0 mm 2 mps 736 mmHg 20%
    15:00 +36°C° 0 mm 3 mps 736 mmHg 20%
    16:00 +36°C° 0 mm 3 mps 735 mmHg 20%
    17:00 +36°C° 0 mm 3 mps 735 mmHg 19%
    18:00 +35°C° 0 mm 3 mps 735 mmHg 20%
    19:00 +35°C° 0 mm 2 mps 736 mmHg 22%
    20:00 +34°C° 0 mm 2 mps 736 mmHg 23%
    21:00 +32°C° 0 mm 2 mps 736 mmHg 24%
    22:00 +32°C° 0 mm 2 mps 736 mmHg 25%
    23:00 +31°C° 0 mm 2 mps 736 mmHg 26%

    Pasado mañana, 20 Abril, Sábado

    Tiempo Temperatura Precipitaciones Viento Presión Humedad
    00:00 +31°C° 0 mm 2 mps 736 mmHg 27%
    01:00 +30°C° 0 mm 3 mps 735 mmHg 28%
    02:00 +30°C° 0 mm 3 mps 735 mmHg 30%
    03:00 +29°C° 0 mm 3 mps 735 mmHg 31%
    04:00 +29°C° 0 mm 3 mps 735 mmHg 31%
    05:00 +28°C° 0 mm 2 mps 735 mmHg 32%
    06:00 +29°C° 0 mm 2 mps 735 mmHg 30%
    07:00 +30°C° 0 mm 2 mps 736 mmHg 28%
    08:00 +31°C° 0 mm 2 mps 736 mmHg 26%
    09:00 +34°C° 0 mm 2 mps 736 mmHg 23%
    10:00 +35°C° 0 mm 1 mps 736 mmHg 21%
    11:00 +36°C° 0 mm 1 mps 736 mmHg 19%
    12:00 +37°C° 0 mm 1 mps 736 mmHg 18%
    13:00 +38°C° 0 mm 2 mps 735 mmHg 17%
    14:00 +39°C° 0 mm 2 mps 734 mmHg 15%
    15:00 +39°C° 0 mm 2 mps 734 mmHg 15%
    16:00 +39°C° 0 mm 2 mps 734 mmHg 15%
    17:00 +39°C° 0 mm 2 mps 733 mmHg 14%
    18:00 +38°C° 0 mm 2 mps 734 mmHg 15%
    19:00 +37°C° 0 mm 2 mps 734 mmHg 16%
    20:00 +36°C° 0 mm 2 mps 734 mmHg 16%
    21:00 +35°C° 0 mm 2 mps 734 mmHg 17%
    22:00 +35°C° 0 mm 2 mps 735 mmHg 18%
    23:00 +33°C° 0 mm 1 mps 735 mmHg 19%

    21 Abril, Domingo

    Tiempo Temperatura Precipitaciones Viento Presión Humedad
    00:00 +32°C° 0 mm 1 mps 734 mmHg 20%
    01:00 +32°C° 0 mm 1 mps 734 mmHg 21%
    02:00 +31°C° 0 mm 1 mps 733 mmHg 22%
    03:00 +31°C° 0 mm 1 mps 733 mmHg 23%
    04:00 +30°C° 0 mm 1 mps 733 mmHg 23%
    05:00 +30°C° 0 mm 1 mps 733 mmHg 24%
    06:00 +31°C° 0 mm 1 mps 734 mmHg 23%
    07:00 +30°C° 0 mm 0 mps 734 mmHg 21%
    08:00 +32°C° 0 mm 0 mps 735 mmHg 20%
    09:00 +35°C° 0 mm 1 mps 735 mmHg 18%
    10:00 +38°C° 0 mm 2 mps 735 mmHg 16%
    11:00 +40°C° 0 mm 3 mps 735 mmHg 15%
    12:00 +40°C° 0 mm 3 mps 734 mmHg 14%
    13:00 +42°C° 0 mm 3 mps 734 mmHg 13%
    14:00 +43°C° 0 mm 4 mps 733 mmHg 12%
    15:00 +43°C° 0 mm 4 mps 732 mmHg 12%
    16:00 +43°C° 0 mm 4 mps 732 mmHg 12%
    17:00 +42°C° 0 mm 4 mps 732 mmHg 12%
    18:00 +40°C° 0 mm 3 mps 732 mmHg 13%
    19:00 +39°C° 0 mm 2 mps 733 mmHg 14%
    20:00 +37°C° 0 mm 1 mps 733 mmHg 15%
    21:00 +36°C° 0 mm 1 mps 733 mmHg 16%
    22:00 +36°C° 0 mm 1 mps 733 mmHg 17%
    23:00 +35°C° 0 mm 1 mps 733 mmHg 17%

    22 Abril, Lunes

    Tiempo Temperatura Precipitaciones Viento Presión Humedad
    00:00 +34°C° 0 mm 1 mps 733 mmHg 19%
    01:00 +33°C° 0 mm 1 mps 733 mmHg 20%
    02:00 +33°C° 0 mm 1 mps 732 mmHg 22%
    03:00 +32°C° 0 mm 1 mps 732 mmHg 22%
    04:00 +32°C° 0 mm 1 mps 733 mmHg 23%
    05:00 +31°C° 0 mm 1 mps 733 mmHg 24%
    06:00 +32°C° 0 mm 1 mps 733 mmHg 22%
    07:00 +34°C° 0 mm 1 mps 734 mmHg 21%
    08:00 +35°C° 0 mm 1 mps 735 mmHg 19%
    09:00 +37°C° 0 mm 1 mps 735 mmHg 17%
    10:00 +37°C° 0 mm 0 mps 735 mmHg 15%
    11:00 +39°C° 0 mm 0 mps 735 mmHg 14%
    12:00 +43°C° 0 mm 2 mps 734 mmHg 13%
    13:00 +44°C° 0 mm 3 mps 734 mmHg 12%
    14:00 +45°C° 0 mm 4 mps 733 mmHg 11%
    15:00 +45°C° 0 mm 4 mps 733 mmHg 11%
    16:00 +44°C° 0 mm 4 mps 732 mmHg 11%
    17:00 +45°C° 0 mm 5 mps 732 mmHg 11%
    18:00 +43°C° 0 mm 4 mps 732 mmHg 12%
    19:00 +42°C° 0 mm 3 mps 733 mmHg 13%
    20:00 +40°C° 0 mm 3 mps 733 mmHg 14%
    21:00 +39°C° 0 mm 3 mps 733 mmHg 14%
    22:00 +38°C° 0 mm 2 mps 733 mmHg 15%
    23:00 +37°C° 0 mm 2 mps 733 mmHg 16%

    23 Abril, Martes

    Tiempo Temperatura Precipitaciones Viento Presión Humedad
    00:00 +36°C° 0 mm 2 mps 733 mmHg 17%
    01:00 +36°C° 0 mm 2 mps 732 mmHg 18%
    02:00 +34°C° 0 mm 1 mps 732 mmHg 19%
    03:00 +33°C° 0 mm 1 mps 732 mmHg 19%
    04:00 +33°C° 0 mm 1 mps 733 mmHg 20%
    05:00 +33°C° 0 mm 1 mps 733 mmHg 21%
    06:00 +34°C° 0 mm 1 mps 733 mmHg 19%
    07:00 +36°C° 0 mm 2 mps 734 mmHg 18%
    08:00 +37°C° 0 mm 2 mps 735 mmHg 17%
    09:00 +39°C° 0 mm 2 mps 735 mmHg 16%
    10:00 +41°C° 0 mm 2 mps 735 mmHg 14%
    11:00 +44°C° 0 mm 3 mps 735 mmHg 13%
    12:00 +44°C° 0 mm 3 mps 734 mmHg 12%
    13:00 +45°C° 0 mm 4 mps 734 mmHg 11%
    14:00 +47°C° 0 mm 5 mps 733 mmHg 10%
    15:00 +47°C° 0 mm 5 mps 733 mmHg 10%
    16:00 +47°C° 0 mm 4 mps 732 mmHg 10%
    17:00 +47°C° 0 mm 4 mps 732 mmHg 10%
    18:00 +44°C° 0 mm 3 mps 733 mmHg 11%
    19:00 +42°C° 0 mm 2 mps 733 mmHg 12%
    20:00 +41°C° 0 mm 1 mps 733 mmHg 13%
    21:00 +40°C° 0 mm 1 mps 733 mmHg 13%
    22:00 +39°C° 0 mm 2 mps 733 mmHg 14%
    23:00 +38°C° 0 mm 2 mps 733 mmHg 14%
    Mostrar más